Project,Study,Ord_Occ,Event_Num,Cast_ID,Date_Time_UTC,Date_Time_PST,Lat_Dec,Lon_Dec,Sta_ID,Line,Sta,Depth,Pressure,PrQ,Temp1,Temp1Q,Temp2,Temp2Q,TempAve,Salt1,Salt1Q,Salt1_Corr,Salt2,Salt2Q,Salt2_Corr,SaltAve_Corr,Ox1,Ox1Q,Ox1_CruiseCorr,Ox1_StaCorr,Ox2,Ox2Q,Ox2_CruiseCorr,Ox2_StaCorr,OxAve_StaCorr,Ox1uM,Ox1uM_CruiseCorr,Ox1uM_StaCorr,Ox2uM,Ox2uM_CruiseCorr,Ox2uM_StaCorr,OxAveuM_StaCorr,FluorV,FluorQ,EstChl_CruiseCorr,EstChl_StaCorr,ISUSV,ISUSQ,EstNO3_CruiseCorr,EstNO3_StaCorr,SigThetaTS1,SigThetaTS1Q,SigThetaTS2,SigThetaTS2Q,BAT,XMiss,TransQ,pH,pHQ,SPAR,SPARQ,PAR,PARQ,PoT1,PoT2,DynHt,SVA,OxSat1,OxSat2,BTL_Depth,BTL_Temp,SaltB,OxB,OxBuM,Chl-a,Phaeo,NO3,NO2,NH4,PO4,SIL
CalCOFI,2007SR,051,53,2007_051u,23-Jul-2020 01:19:10,22-Jul-2020 17:19:10,33.24550,-121.44238,083.3 070.0,083.3,070.0,516.000,520.328,,5.6477,,5.6472,,5.6475,34.2651,,34.2653,34.2669,,34.2685,34.2669,0.3262,,0.3231,0.3493,,,,,,14.184,14.3186,15.1165,,,,,0.0325,,,,-99.0,,-99.0,-99.0,27.0211,,27.0226,,0.6363,85.2944,,7.515,,8.8888E+02,,-5.145E-07,,5.6038,5.6033,0.9481,,4.660,,516,5.648,34.2643,0.336,14.68,,,41.14,0.00,0.07,3.18,83.90
CalCOFI,2007SR,051,53,2007_051u,23-Jul-2020 01:20:16,22-Jul-2020 17:20:16,33.24548,-121.44238,083.3 070.0,083.3,070.0,515.000,519.318,,5.6229,,5.6212,,5.6221,34.2631,,34.2633,34.2646,,34.2662,34.2648,0.3172,,0.3137,0.3399,,,,,,13.794,13.9115,14.7097,,,,,0.0324,,,,-99.0,,-99.0,-99.0,27.0225,,27.0239,,0.6354,85.3116,,7.520,,9.4740E+02,,1.0910E-05,,5.5792,5.5775,0.9530,,4.529,,,,,,,,,,,,,
CalCOFI,2007SR,051,53,2007_051u,23-Jul-2020 01:20:59,22-Jul-2020 17:20:59,33.24549,-121.44238,083.3 070.0,083.3,070.0,514.000,518.309,,5.6063,,5.6057,,5.6060,34.2631,,34.2633,34.2645,,34.2661,34.2647,0.3165,,0.3130,0.3392,,,,,,13.762,13.8781,14.6763,,,,,0.0330,,,,-99.0,,-99.0,-99.0,27.0246,,27.0257,,0.6353,85.3149,,7.520,,1.0500E+03,,-9.853E-08,,5.5627,5.5621,0.9569,,4.516,,,,,,,,,,,,,
CalCOFI,2007SR,051,53,2007_051u,23-Jul-2020 01:20:59,22-Jul-2020 17:20:59,33.24548,-121.44238,083.3 070.0,083.3,070.0,513.000,517.299,,5.6153,,5.6146,,5.6150,34.2641,,34.2643,34.2656,,34.2672,34.2658,0.3164,,0.3129,0.3391,,,,,,13.758,13.8739,14.6722,,,,,0.0322,,,,-99.0,,-99.0,-99.0,27.0242,,27.0255,,0.6353,85.3148,,7.520,,1.0698E+03,,1.0000E-12,,5.5718,5.5711,0.9568,,4.516,,,,,,,,,,,,,
CalCOFI,2007SR,051,53,2007_051u,23-Jul-2020 01:21:00,22-Jul-2020 17:21:00,33.24548,-121.44238,083.3 070.0,083.3,070.0,512.000,516.290,,5.6317,,5.6318,,5.6318,34.2648,,34.2650,34.2663,,34.2679,34.2665,0.3162,,0.3127,0.3389,,,,,,13.750,13.8655,14.6638,,,,,0.0336,,,,-99.0,,-99.0,-99.0,27.0228,,27.0239,,0.6353,85.3148,,7.520,,1.0949E+03,,1.0000E-12,,5.5882,5.5883,0.9568,,4.516,,,,,,,,,,,,,
CalCOFI,2007SR,051,53,2007_051u,23-Jul-2020 01:21:01,22-Jul-2020 17:21:01,33.24548,-121.44238,083.3 070.0,083.3,070.0,511.000,515.280,,5.6405,,5.6404,,5.6405,34.2654,,34.2656,34.2669,,34.2685,34.2671,0.3161,,0.3126,0.3388,,,,,,13.745,13.8603,14.6586,,,,,0.0318,,,,-99.0,,-99.0,-99.0,27.0222,,27.0233,,0.6353,85.3148,,7.520,,1.1203E+03,,1.0000E-12,,5.5970,5.5970,0.9568,,4.515,,,,,,,,,,,,,
CalCOFI,2007SR,051,53,2007_051u,23-Jul-2020 01:21:03,22-Jul-2020 17:21:03,33.24548,-121.44238,083.3 070.0,083.3,070.0,510.000,514.270,,5.6425,,5.6425,,5.6425,34.2654,,34.2656,34.2669,,34.2685,34.2671,0.3170,,0.3135,0.3397,,,,,,13.784,13.9010,14.6993,,,,,0.0323,,,,-99.0,,-99.0,-99.0,27.0219,,27.0231,,0.6353,85.3148,,7.520,,1.1059E+03,,1.0000E-12,,5.5991,5.5991,0.9568,,4.528,,,,,,,,,,,,,
CalCOFI,2007SR,051,53,2007_051u,23-Jul-2020 01:21:04,22-Jul-2020 17:21:04,33.24550,-121.44238,083.3 070.0,083.3,070.0,509.000,513.261,,5.6431,,5.6432,,5.6432,34.2650,,34.2652,34.2665,,34.2681,34.2667,0.3249,,0.3218,0.3479,1.9691,,0.7596,0.4464,0.3972,14.128,14.2601,15.0581,85.626,,24.1910,19.6246,0.0328,,,,-99.0,,-99.0,-99.0,27.0215,,27.0227,,0.6354,85.3117,,7.520,,1.1225E+03,,1.0000E-12,,5.5998,5.5999,0.9568,,4.641,28.127,,,,,,,,,,,,
CalCOFI,2007SR,051,53,2007_051u,23-Jul-2020 01:21:05,22-Jul-2020 17:21:05,33.24550,-121.44238,083.3 070.0,083.3,070.0,508.000,512.251,,5.6479,,5.6473,,5.6476,34.2636,,34.2638,34.2653,,34.2669,34.2654,0.3200,,0.3167,0.3428,1.9675,,0.7558,0.4423,0.3926,13.916,14.0388,14.8370,85.556,,24.0183,19.4277,0.0323,,,,-99.0,,-99.0,-99.0,27.0198,,27.0212,,0.6353,85.3138,,7.520,,1.1474E+03,,1.0000E-12,,5.6047,5.6041,0.9568,,4.572,28.106,,,,,,,,,,,,
CalCOFI,2007SR,051,53,2007_051u,23-Jul-2020 01:21:06,22-Jul-2020 17:21:06,33.24550,-121.44238,083.3 070.0,083.3,070.0,507.000,511.241,,5.6514,,5.6515,,5.6515,34.2623,,34.2625,34.2638,,34.2654,34.2640,0.3213,,0.3180,0.3442,1.9677,,0.7563,0.4428,0.3935,13.972,14.0973,14.8954,85.565,,24.0405,19.4680,0.0335,,,,-99.0,,-99.0,-99.0,27.0183,,27.0195,,0.6353,85.3148,,7.520,,1.1665E+03,,1.0000E-12,,5.6083,5.6083,0.9568,,4.590,28.112,,,,,,,,,,,,
CalCOFI,2007SR,051,53,2007_051u,23-Jul-2020 01:21:07,22-Jul-2020 17:21:07,33.24550,-121.44238,083.3 070.0,083.3,070.0,506.000,510.232,,5.6716,,5.6710,,5.6713,34.2645,,34.2647,34.2659,,34.2675,34.2661,0.3248,,0.3217,0.3478,1.9679,,0.7568,0.4433,0.3956,14.123,14.2549,15.0528,85.574,,24.0627,19.5578,0.0324,,,,-99.0,,-99.0,-99.0,27.0177,,27.0188,,0.6353,85.3148,,7.520,,1.1943E+03,,1.0000E-12,,5.6285,5.6278,0.9568,,4.642,28.128,,,,,,,,,,,,
CalCOFI,2007SR,051,53,2007_051u,23-Jul-2020 01:21:08,22-Jul-2020 17:21:08,33.24549,-121.44238,083.3 070.0,083.3,070.0,505.000,509.222,,5.6938,,5.6947,,5.6943,34.2653,,34.2655,34.2669,,34.2685,34.2670,0.3252,,0.3221,0.3483,1.9633,,0.7458,0.4316,0.3900,14.144,14.2768,15.0747,85.374,,23.5694,19.3221,0.0324,,,,-99.0,,-99.0,-99.0,27.0156,,27.0167,,0.6353,85.3148,,7.520,,1.2196E+03,,1.0000E-12,,5.6506,5.6516,0.9568,,4.651,28.078,,,,,,,,,,,,
CalCOFI,2007SR,051,53,2007_051u,23-Jul-2020 01:21:09,22-Jul-2020 17:21:09,33.24548,-121.44238,083.3 070.0,083.3,070.0,504.000,508.213,,5.7110,,5.7109,,5.7110,34.2662,,34.2664,34.2678,,34.2694,34.2679,0.3248,,0.3217,0.3478,1.9568,,0.7303,0.4149,0.3814,14.122,14.2539,15.0518,85.093,,22.8762,18.9640,0.0320,,,,-99.0,,-99.0,-99.0,27.0142,,27.0154,,0.6363,85.2932,,7.519,,1.2299E+03,,1.0000E-12,,5.6679,5.6678,0.9568,,4.646,27.997,,,,,,,,,,,,
CalCOFI,2007SR,051,53,2007_051u,23-Jul-2020 01:21:10,22-Jul-2020 17:21:10,33.24548,-121.44238,083.3 070.0,083.3,070.0,503.000,507.203,,5.7248,,5.7246,,5.7247,34.2674,,34.2676,34.2689,,34.2705,34.2691,0.3226,,0.3194,0.3455,1.9562,,0.7288,0.4134,0.3795,14.030,14.1578,14.9559,85.066,,22.8096,18.8828,0.0322,,,,-99.0,,-99.0,-99.0,27.0134,,27.0146,,0.6356,85.3081,,7.519,,1.2242E+03,,1.0000E-12,,5.6817,5.6815,0.9568,,4.617,27.997,,,,,,,,,,,,
CalCOFI,2007SR,051,53,2007_051u,23-Jul-2020 01:21:11,22-Jul-2020 17:21:11,33.24548,-121.44238,083.3 070.0,083.3,070.0,502.000,506.193,,5.7304,,5.7302,,5.7303,34.2671,,34.2673,34.2683,,34.2699,34.2686,0.3226,,0.3194,0.3455,1.9573,,0.7315,0.4162,0.3809,14.028,14.1557,14.9538,85.111,,22.9206,18.9372,0.0323,,,,-99.0,,-99.0,-99.0,27.0125,,27.0135,,0.6357,85.3061,,7.519,,1.2070E+03,,1.0000E-12,,5.6874,5.6872,0.9568,,4.617,28.015,,,,,,,,,,,,
CalCOFI,2007SR,051,53,2007_051u,23-Jul-2020 01:21:12,22-Jul-2020 17:21:12,33.24550,-121.44238,083.3 070.0,083.3,070.0,501.000,505.184,,5.7275,,5.7280,,5.7278,34.2654,,34.2656,34.2666,,34.2682,34.2669,0.3294,,0.3265,0.3526,1.9582,,0.7336,0.4185,0.3856,14.322,14.4626,15.2604,85.151,,23.0193,19.1399,0.0330,,,,-99.0,,-99.0,-99.0,27.0115,,27.0124,,0.6353,85.3148,,7.519,,1.1744E+03,,1.0000E-12,,5.6846,5.6851,0.9568,,4.714,28.026,,,,,,,,,,,,
CalCOFI,2007SR,051,53,2007_051u,23-Jul-2020 01:21:14,22-Jul-2020 17:21:14,33.24550,-121.44238,083.3 070.0,083.3,070.0,500.000,504.174,,5.7322,,5.7327,,5.7325,34.2641,,34.2643,34.2654,,34.2670,34.2657,0.3304,,0.3275,0.3537,1.9558,,0.7279,0.4124,0.3831,14.367,14.5096,15.3073,85.047,,22.7627,19.0350,0.0331,,,,-99.0,,-99.0,-99.0,27.0098,,27.0108,,0.6353,85.3148,,7.520,,1.1276E+03,,1.0000E-12,,5.6894,5.6899,0.9568,,4.729,27.995,,,,,,,,,,,,
CalCOFI,2007SR,051,53,2007_051u,23-Jul-2020 01:21:15,22-Jul-2020 17:21:15,33.24550,-121.44238,083.3 070.0,083.3,070.0,499.000,503.165,,5.7467,,5.7459,,5.7463,34.2645,,34.2647,34.2661,,34.2677,34.2662,0.3353,,0.3327,0.3588,1.9529,,0.7210,0.4049,0.3819,14.579,14.7309,15.5284,84.921,,22.4519,18.9902,0.0326,,,,-99.0,,-99.0,-99.0,27.0084,,27.0098,,0.6354,85.3128,,7.520,,1.1187E+03,,1.0000E-12,,5.7039,5.7031,0.9568,,4.801,27.962,,,,,,,,,,,,
CalCOFI,2007SR,051,53,2007_051u,23-Jul-2020 01:21:15,22-Jul-2020 17:21:15,33.24550,-121.44238,083.3 070.0,083.3,070.0,498.000,502.155,,5.7684,,5.7678,,5.7681,34.2633,,34.2635,34.2647,,34.2663,34.2649,0.3360,,0.3334,0.3595,1.9526,,0.7202,0.4042,0.3819,14.613,14.7664,15.5639,84.910,,22.4248,18.9944,0.0327,,,,-99.0,,-99.0,-99.0,27.0047,,27.0059,,0.6361,85.2970,,7.519,,1.1191E+03,,1.0000E-12,,5.7256,5.7250,0.9568,,4.814,27.973,,,,,,,,,,,,
CalCOFI,2007SR,051,53,2007_051u,23-Jul-2020 01:21:16,22-Jul-2020 17:21:16,33.24548,-121.44238,083.3 070.0,083.3,070.0,497.000,501.146,,5.7698,,5.7704,,5.7701,34.2619,,34.2621,34.2630,,34.2646,34.2634,0.3403,,0.3379,0.3640,1.9492,,0.7121,0.3955,0.3798,14.796,14.9574,15.7547,84.761,,22.0572,18.9060,0.0328,,,,-99.0,,-99.0,-99.0,27.0034,,27.0043,,0.6353,85.3147,,7.520,,1.1017E+03,,1.0000E-12,,5.7271,5.7277,0.9568,,4.874,27.925,,,,,,,,,,,,
CalCOFI,2007SR,051,53,2007_051u,23-Jul-2020 01:21:17,22-Jul-2020 17:21:17,33.24548,-121.44238,083.3 070.0,083.3,070.0,496.000,500.136,,5.7727,,5.7730,,5.7729,34.2590,,34.2592,34.2597,,34.2613,34.2603,0.3430,,0.3407,0.3668,1.9498,,0.7136,0.3970,0.3819,14.916,15.0827,15.8799,84.791,,22.1312,19.0056,0.0323,,,,-99.0,,-99.0,-99.0,27.0008,,27.0013,,0.6353,85.3148,,7.520,,1.0935E+03,,1.0000E-12,,5.7301,5.7304,0.9568,,4.914,27.936,,,,,,,,,,,,
CalCOFI,2007SR,051,53,2007_051u,23-Jul-2020 01:21:18,22-Jul-2020 17:21:18,33.24548,-121.44238,083.3 070.0,083.3,070.0,495.000,499.126,,5.7702,,5.7701,,5.7702,34.2561,,34.2563,34.2570,,34.2586,34.2575,0.3415,,0.3391,0.3652,1.9479,,0.7090,0.3921,0.3787,14.849,15.0128,15.8100,84.707,,21.9240,18.8670,0.0317,,,,-99.0,,-99.0,-99.0,26.9988,,26.9995,,0.6356,85.3074,,7.521,,1.0947E+03,,1.0000E-12,,5.7277,5.7276,0.9568,,4.892,27.906,,,,,,,,,,,,
CalCOFI,2007SR,051,53,2007_051u,23-Jul-2020 01:21:19,22-Jul-2020 17:21:19,33.24549,-121.44238,083.3 070.0,083.3,070.0,494.000,498.117,,5.7666,,5.7666,,5.7666,34.2544,,34.2546,34.2555,,34.2571,34.2559,0.3462,,0.3440,0.3701,1.9529,,0.7210,0.4049,0.3875,15.056,15.2289,16.0259,84.924,,22.4593,19.2426,0.0331,,,,-99.0,,-99.0,-99.0,26.9979,,26.9988,,0.6353,85.3148,,7.522,,1.0900E+03,,1.0000E-12,,5.7242,5.7242,0.9568,,4.960,27.975,,,,,,,,,,,,
CalCOFI,2007SR,051,53,2007_051u,23-Jul-2020 01:21:20,22-Jul-2020 17:21:20,33.24550,-121.44238,083.3 070.0,083.3,070.0,493.000,497.107,,5.7655,,5.7656,,5.7656,34.2531,,34.2533,34.2544,,34.2560,34.2547,0.3493,,0.3473,0.3734,1.9465,,0.7057,0.3886,0.3810,15.188,15.3667,16.1636,84.644,,21.7686,18.9661,0.0328,,,,-99.0,,-99.0,-99.0,26.9970,,26.9980,,0.6353,85.3148,,7.522,,1.0801E+03,,1.0000E-12,,5.7231,5.7233,0.9568,,5.003,27.881,,,,,,,,,,,,
CalCOFI,2007SR,051,53,2007_051u,23-Jul-2020 01:21:21,22-Jul-2020 17:21:21,33.24550,-121.44238,083.3 070.0,083.3,070.0,492.000,496.098,,5.7720,,5.7720,,5.7720,34.2531,,34.2533,34.2545,,34.2561,34.2547,0.3497,,0.3477,0.3738,1.9487,,0.7109,0.3942,0.3840,15.208,15.3875,16.1844,84.739,,22.0030,19.0937,0.0324,,,,-99.0,,-99.0,-99.0,26.9962,,26.9973,,0.6360,85.3005,,7.523,,1.0473E+03,,1.0000E-12,,5.7297,5.7297,0.9568,,5.010,27.917,,,,,,,,,,,,
CalCOFI,2007SR,051,53,2007_051u,23-Jul-2020 01:21:23,22-Jul-2020 17:21:23,33.24550,-121.44238,083.3 070.0,083.3,070.0,491.000,495.088,,5.7800,,5.7800,,5.7800,34.2511,,34.2513,34.2522,,34.2538,34.2526,0.3572,,0.3555,0.3816,1.9463,,0.7052,0.3880,0.3848,15.535,15.7289,16.5255,84.638,,21.7538,19.1397,0.0330,,,,-99.0,,-99.0,-99.0,26.9936,,26.9944,,0.6353,85.3150,,7.523,,1.0131E+03,,1.0000E-12,,5.7378,5.7378,0.9568,,5.119,27.888,,,,,,,,,,,,
CalCOFI,2007SR,051,53,2007_051u,23-Jul-2020 01:21:24,22-Jul-2020 17:21:24,33.24550,-121.44238,083.3 070.0,083.3,070.0,490.000,494.079,,5.7801,,5.7802,,5.7802,34.2483,,34.2485,34.2495,,34.2511,34.2498,0.3565,,0.3548,0.3809,1.9435,,0.6985,0.3809,0.3809,15.505,15.6976,16.4942,84.514,,21.4479,18.9711,0.0330,,,,-99.0,,-99.0,-99.0,26.9914,,26.9923,,0.6358,85.3034,,7.523,,9.8533E+02,,1.0000E-12,,5.7380,5.7381,0.9568,,5.109,27.847,,,,,,,,,,,,
CalCOFI,2007SR,051,53,2007_051u,23-Jul-2020 01:21:25,22-Jul-2020 17:21:25,33.24550,-121.44238,083.3 070.0,083.3,070.0,489.000,493.069,,5.7911,,5.7919,,5.7915,34.2496,,34.2498,34.2508,,34.2524,34.2511,0.3571,,0.3554,0.3815,1.9513,,0.7171,0.4008,0.3912,15.530,15.7237,16.5203,84.853,,22.2842,19.4023,0.0320,,,,-99.0,,-99.0,-99.0,26.9911,,26.9919,,0.6362,85.2958,,7.523,,9.5562E+02,,1.0000E-12,,5.7490,5.7498,0.9568,,5.119,27.967,,,,,,,,,,,,
CalCOFI,2007SR,051,53,2007_051u,23-Jul-2020 01:21:25,22-Jul-2020 17:21:25,33.24550,-121.44238,083.3 070.0,083.3,070.0,488.000,492.060,,5.8264,,5.8242,,5.8253,34.2500,,34.2502,34.2516,,34.2532,34.2517,0.3607,,0.3592,0.3852,1.9453,,0.7028,0.3855,0.3854,15.684,15.8844,16.6809,84.593,,21.6428,19.1619,0.0332,,,,-99.0,,-99.0,-99.0,26.9870,,26.9885,,0.6364,85.2912,,7.523,,9.5439E+02,,1.0000E-12,,5.7843,5.7821,0.9568,,5.173,27.902,,,,,,,,,,,,
CalCOFI,2007SR,051,53,2007_051u,23-Jul-2020 01:21:26,22-Jul-2020 17:21:26,33.24550,-121.44238,083.3 070.0,083.3,070.0,487.000,491.050,,5.8315,,5.8317,,5.8316,34.2487,,34.2489,34.2500,,34.2516,34.2503,0.3610,,0.3595,0.3856,1.9443,,0.7004,0.3829,0.3843,15.700,15.9011,16.6976,84.553,,21.5441,19.1209,0.0328,,,,-99.0,,-99.0,-99.0,26.9853,,26.9863,,0.6362,85.2949,,7.523,,9.7682E+02,,1.0000E-12,,5.7894,5.7897,0.9568,,5.179,27.893,,,,,,,,,,,,
CalCOFI,2007SR,051,53,2007_051u,23-Jul-2020 01:21:27,22-Jul-2020 17:21:27,33.24550,-121.44238,083.3 070.0,083.3,070.0,486.000,490.041,,5.8322,,5.8324,,5.8323,34.2473,,34.2475,34.2486,,34.2502,34.2489,0.3622,,0.3608,0.3868,1.9435,,0.6985,0.3809,0.3839,15.750,15.9533,16.7497,84.516,,21.4529,19.1013,0.0325,,,,-99.0,,-99.0,-99.0,26.9841,,26.9851,,0.6359,85.3021,,7.524,,1.0039E+03,,1.0000E-12,,5.7903,5.7904,0.9568,,5.196,27.882,,,,,,,,,,,,
CalCOFI,2007SR,051,53,2007_051u,23-Jul-2020 01:21:28,22-Jul-2020 17:21:28,33.24548,-121.44238,083.3 070.0,083.3,070.0,485.000,489.031,,5.8327,,5.8325,,5.8326,34.2463,,34.2465,34.2477,,34.2493,34.2479,0.3632,,0.3618,0.3879,1.9416,,0.6940,0.3760,0.3820,15.794,15.9993,16.7956,84.434,,21.2506,19.0231,0.0330,,,,-99.0,,-99.0,-99.0,26.9832,,26.9844,,0.6359,85.3016,,7.524,,1.0052E+03,,1.0000E-12,,5.7908,5.7907,0.9568,,5.210,27.854,,,,,,,,,,,,
CalCOFI,2007SR,051,53,2007_051u,23-Jul-2020 01:21:30,22-Jul-2020 17:21:30,33.24548,-121.44238,083.3 070.0,083.3,070.0,484.000,488.022,,5.8350,,5.8351,,5.8351,34.2463,,34.2465,34.2476,,34.2492,34.2479,0.3655,,0.3642,0.3903,1.9443,,0.7004,0.3829,0.3866,15.894,16.1036,16.8999,84.552,,21.5417,19.2208,0.0319,,,,-99.0,,-99.0,-99.0,26.9829,,26.9839,,0.6357,85.3066,,7.523,,9.9511E+02,,1.0000E-12,,5.7932,5.7933,0.9568,,5.243,27.895,,,,,,,,,,,,
CalCOFI,2007SR,051,53,2007_051u,23-Jul-2020 01:21:31,22-Jul-2020 17:21:31,33.24549,-121.44238,083.3 070.0,083.3,070.0,483.000,487.012,,5.8437,,5.8438,,5.8438,34.2460,,34.2462,34.2474,,34.2490,34.2476,0.3700,,0.3689,0.3949,1.9403,,0.6909,0.3727,0.3838,16.089,16.3072,17.1033,84.378,,21.1125,19.1079,0.0332,,,,-99.0,,-99.0,-99.0,26.9817,,26.9827,,0.6354,85.3126,,7.524,,9.9934E+02,,1.0000E-12,,5.8020,5.8021,0.9568,,5.309,27.843,,,,,,,,,,,,
CalCOFI,2007SR,051,53,2007_051u,23-Jul-2020 01:21:32,22-Jul-2020 17:21:32,33.24550,-121.44238,083.3 070.0,083.3,070.0,482.000,486.003,,5.8478,,5.8474,,5.8476,34.2447,,34.2449,34.2460,,34.2476,34.2463,0.3659,,0.3646,0.3907,1.9372,,0.6835,0.3648,0.3778,15.911,16.1214,16.9176,84.241,,20.7745,18.8461,0.0330,,,,-99.0,,-99.0,-99.0,26.9801,,26.9812,,0.6366,85.2866,,7.524,,1.0267E+03,,1.0000E-12,,5.8062,5.8058,0.9568,,5.251,27.800,,,,,,,,,,,,
CalCOFI,2007SR,051,53,2007_051u,23-Jul-2020 01:21:33,22-Jul-2020 17:21:33,33.24550,-121.44238,083.3 070.0,083.3,070.0,481.000,484.993,,5.8496,,5.8492,,5.8494,34.2439,,34.2441,34.2453,,34.2469,34.2455,0.3710,,0.3700,0.3960,1.9400,,0.6902,0.3719,0.3840,16.135,16.3552,17.1512,84.365,,21.0804,19.1158,0.0333,,,,-99.0,,-99.0,-99.0,26.9792,,26.9804,,0.6370,85.2774,,7.524,,1.0439E+03,,1.0000E-12,,5.8081,5.8076,0.9568,,5.325,27.842,,,,,,,,,,,,
CalCOFI,2007SR,051,53,2007_051u,23-Jul-2020 01:21:34,22-Jul-2020 17:21:34,33.24550,-121.44238,083.3 070.0,083.3,070.0,480.000,483.984,,5.8533,,5.8532,,5.8533,34.2438,,34.2440,34.2451,,34.2467,34.2454,0.3744,,0.3735,0.3995,1.9383,,0.6861,0.3676,0.3836,16.281,16.5076,17.3035,84.290,,20.8954,19.0995,0.0325,,,,-99.0,,-99.0,-99.0,26.9787,,26.9797,,0.6358,85.3043,,7.524,,1.0535E+03,,1.0000E-12,,5.8118,5.8117,0.9568,,5.374,27.820,,,,,,,,,,,,
CalCOFI,2007SR,051,53,2007_051u,23-Jul-2020 01:21:34,22-Jul-2020 17:21:34,33.24549,-121.44238,083.3 070.0,083.3,070.0,479.000,482.974,,5.8605,,5.8616,,5.8611,34.2443,,34.2445,34.2454,,34.2470,34.2458,0.3710,,0.3700,0.3960,1.9360,,0.6806,0.3617,0.3789,16.132,16.3521,17.1481,84.190,,20.6487,18.8984,0.0325,,,,-99.0,,-99.0,-99.0,26.9781,,26.9789,,0.6364,85.2912,,7.524,,1.0714E+03,,1.0000E-12,,5.8191,5.8202,0.9568,,5.325,27.792,,,,,,,,,,,,
CalCOFI,2007SR,051,53,2007_051u,23-Jul-2020 01:21:35,22-Jul-2020 17:21:35,33.24548,-121.44238,083.3 070.0,083.3,070.0,478.000,481.965,,5.8655,,5.8659,,5.8657,34.2438,,34.2440,34.2449,,34.2465,34.2453,0.3740,,0.3731,0.3991,1.9352,,0.6787,0.3596,0.3794,16.265,16.4909,17.2868,84.156,,20.5648,18.9258,0.0316,,,,-99.0,,-99.0,-99.0,26.9771,,26.9780,,0.6363,85.2939,,7.524,,1.0891E+03,,1.0000E-12,,5.8241,5.8245,0.9568,,5.370,27.784,,,,,,,,,,,,
CalCOFI,2007SR,051,53,2007_051u,23-Jul-2020 01:21:36,22-Jul-2020 17:21:36,33.24548,-121.44238,083.3 070.0,083.3,070.0,477.000,480.955,,5.8771,,5.8767,,5.8769,34.2450,,34.2452,34.2465,,34.2481,34.2467,0.3748,,0.3739,0.3999,1.9394,,0.6887,0.3704,0.3852,16.300,16.5275,17.3233,84.337,,21.0113,19.1673,0.0327,,,,-99.0,,-99.0,-99.0,26.9766,,26.9779,,0.6359,85.3017,,7.524,,1.0824E+03,,1.0000E-12,,5.8358,5.8354,0.9568,,5.383,27.850,,,,,,,,,,,,
CalCOFI,2007SR,051,53,2007_051u,23-Jul-2020 01:21:37,22-Jul-2020 17:21:37,33.24549,-121.44238,083.3 070.0,083.3,070.0,476.000,479.946,,5.8884,,5.8889,,5.8887,34.2441,,34.2443,34.2452,,34.2468,34.2456,0.3733,,0.3724,0.3984,1.9382,,0.6859,0.3673,0.3829,16.236,16.4607,17.2566,84.285,,20.8831,19.0699,0.0333,,,,-99.0,,-99.0,-99.0,26.9745,,26.9753,,0.6361,85.2985,,7.524,,1.0455E+03,,1.0000E-12,,5.8472,5.8476,0.9568,,5.363,27.841,,,,,,,,,,,,
CalCOFI,2007SR,051,53,2007_051u,23-Jul-2020 01:21:39,22-Jul-2020 17:21:39,33.24550,-121.44238,083.3 070.0,083.3,070.0,475.000,478.936,,5.8879,,5.8874,,5.8877,34.2434,,34.2436,34.2448,,34.2464,34.2450,0.3763,,0.3755,0.4015,1.9385,,0.6866,0.3681,0.3848,16.366,16.5964,17.3921,84.299,,20.9176,19.1549,0.0332,,,,-99.0,,-99.0,-99.0,26.9740,,26.9752,,0.6359,85.3025,,7.524,,1.0217E+03,,1.0000E-12,,5.8468,5.8463,0.9568,,5.406,27.845,,,,,,,,,,,,
CalCOFI,2007SR,051,53,2007_051u,23-Jul-2020 01:21:40,22-Jul-2020 17:21:40,33.24550,-121.44238,083.3 070.0,083.3,070.0,474.000,477.927,,5.8886,,5.8883,,5.8885,34.2431,,34.2433,34.2444,,34.2460,34.2447,0.3786,,0.3779,0.4039,1.9323,,0.6718,0.3522,0.3781,16.466,16.7008,17.4964,84.032,,20.2590,18.8777,0.0325,,,,-99.0,,-99.0,-99.0,26.9736,,26.9748,,0.6353,85.3151,,7.524,,1.0073E+03,,1.0000E-12,,5.8475,5.8472,0.9568,,5.439,27.757,,,,,,,,,,,,
CalCOFI,2007SR,051,53,2007_051u,23-Jul-2020 01:21:41,22-Jul-2020 17:21:41,33.24550,-121.44238,083.3 070.0,083.3,070.0,473.000,476.918,,5.8897,,5.8902,,5.8900,34.2421,,34.2423,34.2433,,34.2449,34.2436,0.3832,,0.3827,0.4087,1.9363,,0.6813,0.3625,0.3856,16.665,16.9085,17.7040,84.205,,20.6857,19.1949,0.0328,,,,-99.0,,-99.0,-99.0,26.9727,,26.9737,,0.6356,85.3079,,7.524,,9.9726E+02,,1.0000E-12,,5.8487,5.8492,0.9568,,5.505,27.815,,,,,,,,,,,,
CalCOFI,2007SR,051,53,2007_051u,23-Jul-2020 01:21:42,22-Jul-2020 17:21:42,33.24550,-121.44238,083.3 070.0,083.3,070.0,472.000,475.908,,5.8953,,5.8965,,5.8959,34.2416,,34.2418,34.2427,,34.2443,34.2431,0.3854,,0.3850,0.4110,1.9391,,0.6880,0.3696,0.3903,16.758,17.0056,17.8010,84.324,,20.9793,19.3902,0.0325,,,,-99.0,,-99.0,-99.0,26.9716,,26.9723,,0.6360,85.3007,,7.524,,9.9328E+02,,1.0000E-12,,5.8544,5.8556,0.9568,,5.536,27.858,,,,,,,,,,,,
CalCOFI,2007SR,051,53,2007_051u,23-Jul-2020 01:21:43,22-Jul-2020 17:21:43,33.24550,-121.44238,083.3 070.0,083.3,070.0,471.000,474.899,,5.9007,,5.9012,,5.9010,34.2399,,34.2401,34.2409,,34.2425,34.2413,0.3922,,0.3921,0.4181,1.9363,,0.6813,0.3625,0.3903,17.057,17.3177,18.1128,84.205,,20.6857,19.3993,0.0325,,,,-99.0,,-99.0,-99.0,26.9696,,26.9704,,0.6362,85.2950,,7.524,,1.0110E+03,,1.0000E-12,,5.8599,5.8603,0.9568,,5.636,27.822,,,,,,,,,,,,
CalCOFI,2007SR,051,53,2007_051u,23-Jul-2020 01:21:44,22-Jul-2020 17:21:44,33.24549,-121.44238,083.3 070.0,083.3,070.0,470.000,473.889,,5.9085,,5.9094,,5.9090,34.2386,,34.2388,34.2398,,34.2414,34.2401,0.3962,,0.3963,0.4222,1.9331,,0.6737,0.3543,0.3883,17.231,17.4993,18.2943,84.063,,20.3354,19.3149,0.0328,,,,-99.0,,-99.0,-99.0,26.9676,,26.9684,,0.6364,85.2913,,7.524,,1.0299E+03,,1.0000E-12,,5.8677,5.8686,0.9568,,5.694,27.780,,,,,,,,,,,,
CalCOFI,2007SR,051,53,2007_051u,23-Jul-2020 01:21:44,22-Jul-2020 17:21:44,33.24548,-121.44238,083.3 070.0,083.3,070.0,469.000,472.880,,5.9118,,5.9116,,5.9117,34.2365,,34.2367,34.2373,,34.2389,34.2378,0.4003,,0.4006,0.4265,1.9404,,0.6911,0.3729,0.3997,17.410,17.6862,18.4810,84.383,,21.1248,19.8029,0.0323,,,,-99.0,,-99.0,-99.0,26.9656,,26.9662,,0.6358,85.3037,,7.524,,1.0106E+03,,1.0000E-12,,5.8711,5.8709,0.9568,,5.754,27.887,,,,,,,,,,,,
CalCOFI,2007SR,051,53,2007_051u,23-Jul-2020 01:21:45,22-Jul-2020 17:21:45,33.24548,-121.44238,083.3 070.0,083.3,070.0,468.000,471.870,,5.9023,,5.9019,,5.9021,34.2317,,34.2319,34.2321,,34.2337,34.2328,0.4020,,0.4023,0.4283,1.9341,,0.6761,0.3568,0.3926,17.482,17.7614,18.5561,84.109,,20.4489,19.5025,0.0326,,,,-99.0,,-99.0,-99.0,26.9629,,26.9633,,0.6355,85.3102,,7.524,,9.7458E+02,,1.0000E-12,,5.8617,5.8614,0.9568,,5.776,27.789,,,,,,,,,,,,
CalCOFI,2007SR,051,53,2007_051u,23-Jul-2020 01:21:47,22-Jul-2020 17:21:47,33.24548,-121.44238,083.3 070.0,083.3,070.0,467.000,470.861,,5.8915,,5.8920,,5.8918,34.2281,,34.2283,34.2294,,34.2310,34.2297,0.4043,,0.4048,0.4307,1.9364,,0.6816,0.3627,0.3967,17.581,17.8647,18.6593,84.210,,20.6980,19.6787,0.0332,,,,-99.0,,-99.0,-99.0,26.9614,,26.9624,,0.6362,85.2952,,7.524,,9.3037E+02,,1.0000E-12,,5.8510,5.8516,0.9568,,5.807,27.815,,,,,,,,,,,,
CalCOFI,2007SR,051,53,2007_051u,23-Jul-2020 01:21:48,22-Jul-2020 17:21:48,33.24548,-121.44238,083.3 070.0,083.3,070.0,466.000,469.852,,5.9086,,5.9085,,5.9086,34.2303,,34.2305,34.2319,,34.2335,34.2320,0.4050,,0.4055,0.4314,1.9338,,0.6754,0.3561,0.3938,17.612,17.8971,18.6916,84.095,,20.4144,19.5530,0.0325,,,,-99.0,,-99.0,-99.0,26.9610,,26.9623,,0.6363,85.2940,,7.525,,9.2825E+02,,1.0000E-12,,5.8682,5.8681,0.9568,,5.820,27.788,,,,,,,,,,,,
CalCOFI,2007SR,051,53,2007_051u,23-Jul-2020 01:21:49,22-Jul-2020 17:21:49,33.24548,-121.44238,083.3 070.0,083.3,070.0,465.000,468.842,,5.9288,,5.9303,,5.9296,34.2320,,34.2322,34.2339,,34.2355,34.2339,0.4073,,0.4079,0.4338,1.9360,,0.6806,0.3617,0.3978,17.712,18.0015,18.7959,84.193,,20.6561,19.7260,0.0332,,,,-99.0,,-99.0,-99.0,26.9598,,26.9611,,0.6354,85.3130,,7.524,,9.5910E+02,,1.0000E-12,,5.8884,5.8899,0.9568,,5.855,27.835,,,,,,,,,,,,
CalCOFI,2007SR,051,53,2007_051u,23-Jul-2020 01:21:50,22-Jul-2020 17:21:50,33.24548,-121.44238,083.3 070.0,083.3,070.0,464.000,467.833,,5.9543,,5.9537,,5.9540,34.2323,,34.2325,34.2339,,34.2355,34.2340,0.4181,,0.4192,0.4451,1.9353,,0.6789,0.3599,0.4025,18.181,18.4910,19.2851,84.162,,20.5796,19.9324,0.0325,,,,-99.0,,-99.0,-99.0,26.9569,,26.9582,,0.6353,85.3148,,7.525,,9.8963E+02,,1.0000E-12,,5.9139,5.9133,0.9568,,6.014,27.840,,,,,,,,,,,,